Weather Roundup
Issued by NWS Chicago, IL

Home | Current Version | Previous Version | Graphics & Text | Print | Product List | Glossary On
Versions: 1 2 3 4 5 6 7 8 9 10 11 12 13 14 15 16 17 18 19 20 21 22 23 24 25 26 27 28 29 30 31 32 33 34 35 36 37 38 39 40 41 42 43 44 45 46 47 48 49 50
000
NZUS59 KLOT 250504
HRRLOT

CHICAGO AREA WEATHER ROUNDUP
NATIONAL WEATHER SERVICE CHICAGO/ROMEOVILLE IL
1200 AM CDT THU MAY 25 2017

NOTE: "FAIR" INDICATES FEW OR NO CLOUDS BELOW 12,000 FEET WITH NO
SIGNIFICANT WEATHER AND/OR OBSTRUCTIONS TO VISIBILITY.

* THESE STATIONS ARE NOT UNDER NWS QUALITY CONTROL. THEY ALSO MAY NOT
  REPORT WEATHER SUCH AS PRECIPITATION OR FOG.

ILZ005-006-012>014-019>023-250600-
NORTHEAST ILLINOIS

CITY           SKY/WX    TMP DP  RH WIND       PRES   REMARKS
OHARE          CLOUDY    54  49  83 N12       29.56S
MIDWAY         CLOUDY    53  50  89 N10       29.55S
AURORA         CLOUDY    57  51  80 N12       29.58R
LANSING*       CLOUDY    51  51 100 N6        29.54F
WAUKEGAN       CLOUDY    53  50  89 N8        29.57S
DUPAGE AIRPORT CLOUDY    54  52  93 N10       29.56S
WHEELING       CLOUDY    53  51  93 N8        29.58S
NORTHERLY ISL    N/A     52  49  89 N13         N/A
$$

WIZ051-052-058>065-066-070>072-250600-
SOUTHEAST WISCONSIN

CITY           SKY/WX    TMP DP  RH WIND       PRES   REMARKS
MILWAUKEE      CLOUDY    55  51  86 N13       29.59F
KENOSHA*       CLOUDY    54  50  86 N8        29.58F
RACINE*        MOCLDY    51  47  86 N17G26    29.60F
$$

INZ001>003-010>013-019-020-250600-
NORTHWEST INDIANA

CITY           SKY/WX    TMP DP  RH WIND       PRES   REMARKS
GARY*          CLOUDY    51  50  93 NW14      29.54F
MICHIGAN CITY* NOT AVBL
RENSSELAER*    NOT AVBL
VALPARAISO     CLOUDY    53  52  96 N9        29.51S FOG
$$

LMZ740>746-250600-
SOUTHERN LAKE MICHIGAN

STATION/POSITION TIME  SKY/WX   TEMP WIND        PRES    VSBY
                                AIR  DIR/SP/G
                 (UTC)          (F)  (DEG/KT/KT) (MB)    (MI)
HARRISON CRIB    0440            50  340/ 24/ 26   N/A
BURNHAM HARBOR   0500            53  330/ 11/ 18   N/A
CALUMET HARBOR   0430            50  330/ 13/ 21 1000.4S
BURNS HARBOR     0440            49  340/ 16/ 23 1000.3S
MICHIGAN CITY    0440            51  330/ 19/ 21   N/A
$$

ABBREVIATIONS USED IN REMARKS
   TC - TEMPERATURE IN CELSIUS
  WCI - WIND CHILL INDEX
   HX - HEAT INDEX
  VSB - VISIBILITY
$$




USA.gov is the U.S. government's official web portal to all federal, state and local government web resources and services.